| time (UTC) | temp F | wind direction | speed knots | gust knots | rain 1hr in | rain 24hr in | rain mn in | humidity % | barometer mb |
| 20260507010433 | 45 | 0.0 | 0.0 | 0.00 | 0.95 | 0.62 | 96 | 1011.9 | |
| 20260507005433 | 45 | 0.0 | 0.0 | 0.00 | 0.95 | 0.62 | 96 | 1011.9 | |
| 20260507004433 | 45 | 0.0 | 0.0 | 0.00 | 0.96 | 0.62 | 96 | 1012.3 | |
| 20260507003433 | 45 | 0.0 | 0.0 | 0.00 | 1.00 | 0.62 | 95 | 1011.7 | |
| 20260507002453 | 45 | 0.0 | 0.0 | 0.00 | 1.05 | 0.62 | 95 | 1011.8 | |
| 20260507001433 | 46 | 0.0 | 0.0 | 0.00 | 1.05 | 0.62 | 95 | 1011.5 | |
| 20260507000435 | 46 | 0.0 | 0.0 | 0.00 | 1.05 | 0.62 | 95 | 1011.5 | |
| 20260506235433 | 46 | 0.0 | 0.0 | 0.00 | 1.05 | 0.62 | 95 | 1011.3 | |
| 20260506234453 | 46 | 0.0 | 0.0 | 0.00 | 1.05 | 0.62 | 94 | 1011.6 | |
| 20260506233433 | 46 | 0.0 | 0.0 | 0.00 | 1.05 | 0.62 | 94 | 1010.9 | |
| 20260506232433 | 46 | 0.0 | 0.0 | 0.00 | 1.05 | 0.62 | 94 | 1011.1 | |
| 20260506231433 | 46 | 0.0 | 0.0 | 0.00 | 1.05 | 0.62 | 94 | 1010.8 | |
| 20260506230434 | 46 | 0.0 | 0.0 | 0.00 | 1.05 | 0.62 | 94 | 1010.8 | |
| 20260506225433 | 46 | 0.0 | 0.0 | 0.00 | 1.05 | 0.62 | 94 | 1010.1 | |
| 20260506224433 | 46 | 0.0 | 0.0 | 0.00 | 1.05 | 0.62 | 93 | 1011.1 | |
| 20260506223433 | 46 | 0.0 | 0.0 | 0.00 | 1.05 | 0.62 | 93 | 1011.0 | |
| 20260506222433 | 46 | 0.0 | 0.0 | 0.00 | 1.05 | 0.62 | 93 | 1011.1 | |
| 20260506221454 | 47 | 0.0 | 0.0 | 0.00 | 1.05 | 0.62 | 93 | 1010.9 | |
| 20260506220435 | 47 | 0.0 | 0.0 | 0.00 | 1.05 | 0.62 | 93 | 1011.1 | |
| 20260506215435 | 47 | 0.0 | 0.0 | 0.00 | 1.05 | 0.62 | 94 | 1010.7 | |
| 20260506214434 | 47 | 0.0 | 0.0 | 0.00 | 1.05 | 0.62 | 95 | 1010.9 | |
| 20260506213433 | 47 | 0.0 | 0.0 | 0.00 | 1.05 | 0.62 | 96 | 1010.5 | |
| 20260506212433 | 46 | 0.0 | 0.0 | 0.00 | 1.09 | 0.62 | 96 | 1010.6 | |
| 20260506211433 | 46 | 0.0 | 0.0 | 0.00 | 1.10 | 0.62 | 97 | 1010.5 | |
| 20260506210433 | 46 | 0.0 | 0.0 | 0.00 | 1.10 | 0.62 | 98 | 1010.6 | |
| 20260506205434 | 46 | 0.0 | 0.0 | 0.00 | 1.10 | 0.62 | 99 | 1010.2 | |
| 20260506204433 | 46 | 0.0 | 0.0 | 0.00 | 1.10 | 0.62 | 99 | 1010.1 | |
| 20260506203454 | 46 | 338 | 0.0 | 4.3 | 0.00 | 1.10 | 0.62 | 99 | 1010.0 |
| 20260506202433 | 45 | 0.0 | 0.0 | 0.00 | 1.10 | 0.62 | 99 | 1009.8 | |
| 20260506201433 | 46 | 0.0 | 0.0 | 0.00 | 1.10 | 0.62 | 99 | 1009.5 | |
| 20260506200433 | 46 | 0.0 | 0.0 | 0.00 | 1.10 | 0.62 | 99 | 1009.8 | |
| 20260506195433 | 46 | 0.0 | 0.0 | 0.00 | 1.10 | 0.62 | 99 | 1009.9 | |
| 20260506194433 | 46 | 0.0 | 0.0 | 0.00 | 1.10 | 0.62 | 99 | 1010.0 | |
| 20260506193434 | 46 | 0.0 | 0.0 | 0.00 | 1.10 | 0.62 | 99 | 1009.8 | |
| 20260506192433 | 46 | 0.0 | 0.0 | 0.00 | 1.10 | 0.62 | 99 | 1009.7 | |
| 20260506191454 | 46 | 0.0 | 0.0 | 0.00 | 1.10 | 0.62 | 99 | 1009.6 | |
| 20260506190433 | 46 | 0.0 | 0.0 | 0.00 | 1.10 | 0.62 | 99 | 1009.6 | |
| 20260506185434 | 45 | 0.0 | 0.0 | 0.00 | 1.10 | 0.62 | 99 | 1009.4 | |
| 20260506184433 | 45 | 0.0 | 0.0 | 0.00 | 1.10 | 0.62 | 99 | 1009.6 | |
| 20260506183453 | 46 | 0.0 | 0.0 | 0.00 | 1.10 | 0.62 | 99 | 1009.5 | |
| 20260506182433 | 46 | 0.0 | 0.0 | 0.00 | 1.10 | 0.62 | 99 | 1009.2 | |
| 20260506181514 | 46 | 0.0 | 0.0 | 0.00 | 1.10 | 0.62 | 99 | 1009.0 | |
| 20260506180433 | 46 | 0.0 | 0.0 | 0.00 | 1.11 | 0.62 | 99 | 1009.0 | |
| 20260506175433 | 46 | 0.0 | 0.0 | 0.00 | 1.14 | 0.62 | 99 | 1008.8 | |
| 20260506174433 | 46 | 0.0 | 0.0 | 0.00 | 1.14 | 0.62 | 99 | 1009.0 | |
| 20260506173434 | 46 | 0.0 | 0.0 | 0.00 | 1.14 | 0.62 | 99 | 1008.7 | |
| 20260506172433 | 46 | 0.0 | 0.0 | 0.00 | 1.14 | 0.62 | 99 | 1008.8 | |
| 20260506171433 | 47 | 0.0 | 0.0 | 0.00 | 1.14 | 0.62 | 99 | 1008.5 | |
| 20260506170433 | 46 | 0.0 | 0.0 | 0.00 | 1.14 | 0.62 | 99 | 1008.6 | |
| 20260506165434 | 47 | 0.0 | 0.0 | 0.00 | 1.14 | 0.62 | 99 | 1008.3 | |
| 20260506164433 | 46 | 0.0 | 0.0 | 0.01 | 1.14 | 0.62 | 99 | 1008.8 | |
| 20260506163433 | 46 | 0.0 | 0.0 | 0.02 | 1.14 | 0.62 | 99 | 1008.5 | |
| 20260506162433 | 47 | 0.0 | 0.0 | 0.02 | 1.14 | 0.62 | 99 | 1008.7 | |
| 20260506161433 | 45 | 0.0 | 0.0 | 0.01 | 1.13 | 0.61 | 99 | 1008.8 | |
| 20260506160433 | 45 | 0.0 | 0.0 | 0.01 | 1.13 | 0.61 | 99 | 1009.0 | |
| 20260506155434 | 45 | 0.0 | 0.0 | 0.02 | 1.13 | 0.61 | 99 | 1008.9 | |
| 20260506154453 | 45 | 0.0 | 0.0 | 0.01 | 1.12 | 0.60 | 99 | 1009.1 | |
| 20260506153434 | 45 | 0.0 | 0.0 | 0.02 | 1.11 | 0.59 | 99 | 1008.9 | |
| 20260506152433 | 45 | 0.0 | 0.0 | 0.02 | 1.11 | 0.59 | 99 | 1009.3 | |
| 20260506151434 | 45 | 0.0 | 0.0 | 0.02 | 1.11 | 0.59 | 99 | 1008.6 | |
| 20260506150433 | 45 | 0.0 | 0.0 | 0.03 | 1.11 | 0.59 | 99 | 1008.9 | |
| 20260506145434 | 45 | 0.0 | 0.0 | 0.03 | 1.10 | 0.58 | 99 | 1008.5 | |
| 20260506144433 | 45 | 0.0 | 0.0 | 0.05 | 1.10 | 0.58 | 99 | 1008.5 | |
| 20260506143434 | 45 | 0.0 | 0.0 | 0.04 | 1.09 | 0.57 | 99 | 1008.3 | |
| 20260506142433 | 45 | 0.0 | 0.0 | 0.05 | 1.08 | 0.56 | 99 | 1008.8 | |
| 20260506141434 | 45 | 0.0 | 0.0 | 0.07 | 1.08 | 0.56 | 99 | 1008.3 | |
| 20260506140433 | 45 | 0.0 | 0.0 | 0.08 | 1.07 | 0.55 | 99 | 1008.7 | |
| 20260506135434 | 44 | 0.0 | 0.0 | 0.10 | 1.06 | 0.54 | 99 | 1008.7 | |
| 20260506134433 | 44 | 0.0 | 0.0 | 0.12 | 1.05 | 0.53 | 99 | 1009.0 | |
| 20260506133434 | 45 | 0.0 | 0.0 | 0.14 | 1.04 | 0.52 | 99 | 1008.9 | |
| 20260506132433 | 45 | 0.0 | 0.0 | 0.15 | 1.02 | 0.50 | 99 | 1009.0 | |
| 20260506131454 | 45 | 0.0 | 0.0 | 0.15 | 1.00 | 0.48 | 99 | 1009.0 | |
| 20260506130433 | 45 | 0.0 | 0.0 | 0.14 | 0.98 | 0.46 | 99 | 1009.0 | |
| 20260506125454 | 44 | 0.0 | 0.0 | 0.12 | 0.96 | 0.44 | 99 | 1009.0 | |
| 20260506124433 | 44 | 0.0 | 0.0 | 0.09 | 0.93 | 0.41 | 99 | 1009.0 | |
| 20260506123434 | 44 | 0.0 | 0.0 | 0.07 | 0.90 | 0.38 | 99 | 1008.8 | |
| 20260506122453 | 45 | 0.0 | 0.0 | 0.05 | 0.87 | 0.35 | 99 | 1008.8 | |
| 20260506121434 | 44 | 0.0 | 0.0 | 0.04 | 0.85 | 0.33 | 99 | 1008.4 | |
| 20260506120433 | 45 | 0.0 | 0.0 | 0.05 | 0.84 | 0.32 | 99 | 1009.0 | |
| 20260506115434 | 44 | 0.0 | 0.0 | 0.05 | 0.83 | 0.31 | 99 | 1008.9 | |
| 20260506114453 | 45 | 0.0 | 0.0 | 0.07 | 0.83 | 0.31 | 99 | 1009.5 | |
| 20260506113434 | 45 | 0.0 | 0.0 | 0.07 | 0.82 | 0.30 | 99 | 1008.8 | |
| 20260506112433 | 45 | 0.0 | 0.0 | 0.08 | 0.81 | 0.29 | 99 | 1009.5 | |
| 20260506111435 | 45 | 0.0 | 0.0 | 0.07 | 0.80 | 0.28 | 99 | 1009.5 | |
| 20260506110433 | 45 | 0.0 | 0.0 | 0.08 | 0.78 | 0.26 | 99 | 1009.6 | |
| 20260506105434 | 45 | 0.0 | 0.0 | 0.07 | 0.77 | 0.25 | 99 | 1008.9 | |
| 20260506104434 | 45 | 0.0 | 0.0 | 0.06 | 0.75 | 0.23 | 99 | 1009.3 | |
| 20260506103435 | 45 | 0.0 | 0.0 | 0.06 | 0.74 | 0.22 | 99 | 1009.3 | |
| 20260506102433 | 45 | 0.0 | 0.0 | 0.05 | 0.73 | 0.21 | 99 | 1009.3 | |
| 20260506101454 | 44 | 0.0 | 0.0 | 0.07 | 0.73 | 0.21 | 99 | 1008.8 | |
| 20260506100513 | 44 | 0.0 | 0.0 | 0.05 | 0.70 | 0.18 | 99 | 1009.4 | |
| 20260506095434 | 44 | 0.0 | 0.0 | 0.07 | 0.70 | 0.18 | 99 | 1008.7 | |
| 20260506094433 | 44 | 0.0 | 0.0 | 0.07 | 0.69 | 0.17 | 99 | 1009.3 | |
| 20260506093434 | 44 | 0.0 | 0.0 | 0.06 | 0.68 | 0.16 | 99 | 1009.3 | |
| 20260506092433 | 44 | 0.0 | 0.0 | 0.06 | 0.67 | 0.15 | 99 | 1010.1 | |
| 20260506091434 | 44 | 0.0 | 0.0 | 0.06 | 0.66 | 0.14 | 99 | 1009.8 | |
| 20260506090433 | 44 | 0.0 | 0.0 | 0.06 | 0.64 | 0.12 | 99 | 1009.9 | |
| 20260506085434 | 45 | 0.0 | 0.0 | 0.06 | 0.62 | 0.10 | 99 | 1009.2 | |
| 20260506084433 | 45 | 0.0 | 0.0 | 0.05 | 0.61 | 0.09 | 99 | 1009.9 | |
| 20260506083455 | 45 | 0.0 | 0.0 | 0.05 | 0.61 | 0.09 | 99 | 1009.7 | |
| 20260506082433 | 45 | 0.0 | 0.0 | 0.04 | 0.61 | 0.08 | 99 | 1010.0 | |
| 20260506081435 | 45 | 0.0 | 0.0 | 0.03 | 0.60 | 0.07 | 99 | 1010.3 | |
| 20260506080433 | 45 | 0.0 | 0.0 | 0.01 | 0.58 | 0.05 | 99 | 1009.8 | |
| 20260506073434 | 47 | 0.0 | 0.0 | 0.00 | 0.56 | 0.03 | 99 | 1009.1 | |
| 20260506072433 | 47 | 0.0 | 0.0 | 0.00 | 0.56 | 0.03 | 99 | 1009.3 | |
| 20260506071434 | 47 | 0.0 | 0.0 | 0.00 | 0.56 | 0.03 | 99 | 1009.4 | |
| 20260506070433 | 48 | 0.0 | 0.0 | 0.01 | 0.56 | 0.03 | 99 | 1009.6 | |
| 20260506062433 | 48 | 0.0 | 0.0 | 0.01 | 0.56 | 0.03 | 99 | 1009.6 | |
| 20260506061434 | 48 | 0.0 | 0.0 | 0.01 | 0.56 | 0.03 | 99 | 1009.6 | |
| 20260506060433 | 48 | 0.0 | 0.0 | 0.00 | 0.54 | 0.01 | 99 | 1010.0 | |
| 20260506050433 | 48 | 0.0 | 0.0 | 0.01 | 0.54 | 0.01 | 99 | 1010.9 | |
| 20260506044433 | 48 | 0.0 | 0.0 | 0.06 | 0.54 | 0.01 | 99 | 1010.9 | |
| 20260506043454 | 48 | 0.0 | 0.0 | 0.09 | 0.54 | 0.01 | 99 | 1010.8 | |
| 20260506042433 | 48 | 0.0 | 0.0 | 0.11 | 0.54 | 0.01 | 99 | 1010.7 | |
| 20260506041455 | 48 | 0.0 | 0.0 | 0.12 | 0.53 | 0.00 | 99 | 1010.7 | |
| 20260506040433 | 48 | 0.0 | 0.0 | 0.14 | 0.53 | 0.00 | 99 | 1010.8 | |
| 20260506035434 | 48 | 0.0 | 0.0 | 0.15 | 0.52 | 0.52 | 99 | 1011.2 | |
| 20260506034433 | 48 | 0.0 | 0.0 | 0.11 | 0.48 | 0.48 | 99 | 1011.6 | |
| 20260506033454 | 48 | 0.0 | 0.0 | 0.09 | 0.44 | 0.44 | 99 | 1011.2 | |
| 20260506032433 | 48 | 0.0 | 0.0 | 0.08 | 0.43 | 0.43 | 99 | 1011.0 | |
| 20260506031434 | 48 | 0.0 | 0.0 | 0.08 | 0.41 | 0.41 | 99 | 1011.4 | |
| 20260506030433 | 48 | 0.0 | 0.0 | 0.08 | 0.39 | 0.39 | 99 | 1011.1 | |
| 20260506025434 | 48 | 0.0 | 0.0 | 0.08 | 0.37 | 0.37 | 99 | 1011.4 | |
| 20260506024434 | 48 | 0.0 | 0.0 | 0.09 | 0.36 | 0.36 | 99 | 1011.5 | |
| 20260506023434 | 48 | 0.0 | 0.0 | 0.09 | 0.35 | 0.35 | 99 | 1011.1 | |
| 20260506022433 | 48 | 0.0 | 0.0 | 0.12 | 0.34 | 0.34 | 99 | 1011.3 | |
| 20260506021454 | 48 | 0.0 | 0.0 | 0.11 | 0.32 | 0.32 | 99 | 1011.5 | |
| 20260506020433 | 49 | 0.0 | 0.0 | 0.11 | 0.30 | 0.30 | 99 | 1010.9 | |
| 20260506015454 | 48 | 0.0 | 0.0 | 0.09 | 0.28 | 0.28 | 99 | 1011.4 | |
| 20260506014433 | 48 | 0.0 | 0.0 | 0.08 | 0.26 | 0.26 | 99 | 1011.0 | |
| 20260506013434 | 48 | 0.0 | 0.0 | 0.11 | 0.26 | 0.26 | 99 | 1010.8 | |
| 20260506012433 | 48 | 0.0 | 0.0 | 0.12 | 0.22 | 0.22 | 99 | 1011.2 | |
| 20260506011434 | 49 | 0.0 | 0.0 | 0.11 | 0.20 | 0.20 | 99 | 1011.0 |